Printer-friendly version

IAU Minor Planet Center

Minor Planet Center

MPEC 2000-V07: 2000 UP30

The following Minor Planet Electronic Circular may be linked-to from your own Web pages, but must not otherwise be redistributed electronically.


Read MPEC 2000-V06 Read MPEC 2000-V08


M.P.E.C. 2000-V07                                Issued 2000 Nov. 2, 15:50 UT

     The Minor Planet Electronic Circulars contain information on unusual
         minor planets and routine data on comets.  They are published
   on behalf of Commission 20 of the International Astronomical Union by the
          Minor Planet Center, Smithsonian Astrophysical Observatory,
                          Cambridge, MA 02138, U.S.A.

             Prepared using the Tamkin Foundation Computer Network

                              MPC@CFA.HARVARD.EDU
          URL http://cfa-www.harvard.edu/iau/mpc.html  ISSN 1523-6714

                                   2000 UP30

Observations:
     K00U30P* C2000 10 30.46234 07 30 16.48 +05 26 01.7          17.5        704
     K00U30P  C2000 10 30.47640 07 30 13.57 +05 25 53.3          17.9        704
     K00U30P  C2000 10 30.49047 07 30 10.59 +05 25 45.3          18.3        704
     K00U30P  C2000 10 31.41837 07 27 00.86 +05 16 54.0          18.4        704
     K00U30P  C2000 10 31.43241 07 26 57.87 +05 16 45.8          19.1        704
     K00U30P  C2000 10 31.44692 07 26 54.77 +05 16 37.6          18.8        704
     K00U30P  C2000 10 31.46216 07 26 51.60 +05 16 29.5          18.3        704
     K00U30P  C2000 10 31.47705 07 26 48.44 +05 16 21.3          17.9        704
     K00U30P  C2000 11 01.40990 07 23 36.61 +05 07 41.9          17.2        704
     K00U30P  C2000 11 01.41002 07 23 36.59 +05 07 41.3          17.5        704
     K00U30P  C2000 11 01.41089 07 23 36.47 +05 07 42.2          17.6 R      919
     K00U30P  C2000 11 01.42068 07 23 34.44 +05 07 37.8          17.9 R      919
     K00U30P  C2000 11 01.42353 07 23 33.71 +05 07 34.1          17.7        704
     K00U30P  C2000 11 01.42364 07 23 33.71 +05 07 34.3          17.5        704
     K00U30P  C2000 11 01.43184 07 23 31.99 +05 07 29.8          18.0        704
     K00U30P  C2000 11 01.43195 07 23 31.89 +05 07 29.4          17.9        704
     K00U30P  C2000 11 01.43720 07 23 30.81 +05 07 27.0          18.3        704
     K00U30P  C2000 11 01.43731 07 23 30.79 +05 07 26.7          18.2        704
     K00U30P  C2000 11 01.45964 07 23 26.02 +05 07 14.2          18.4        704
     K00U30P  C2000 11 01.45976 07 23 25.98 +05 07 14.1          18.9        704
     K00U30P  C2000 11 01.47348 07 23 23.06 +05 07 06.8          18.2        704
     K00U30P  C2000 11 01.47359 07 23 23.07 +05 07 06.8          18.4        704
     K00U30P  C2000 11 01.48731 07 23 20.20 +05 06 59.2          18.2        704
     K00U30P  C2000 11 01.48742 07 23 20.17 +05 06 58.4          18.5        704
     K00U30P  C2000 11 01.51287 07 23 15.00 +05 06 46.1                      670
     K00U30P  C2000 11 01.55395 07 23 06.11 +05 06 24.0                      670
     K00U30P  C2000 11 01.96541 07 21 41.92 +05 02 34.5          16.7 R      046
     K00U30P  C2000 11 01.96655 07 21 41.75 +05 02 34.5                      046
     K00U30P  C2000 11 01.96794 07 21 41.46 +05 02 33.9                      046
     K00U30P  C2000 11 01.96878 07 21 41.27 +05 02 33.1                      046
     K00U30P  C2000 11 02.04123 07 21 26.01 +05 01 54.5                      118
     K00U30P  C2000 11 02.04241 07 21 25.74 +05 01 54.2                      118
     K00U30P  C2000 11 02.04855 07 21 24.41 +05 01 50.8                      118

Observer details:
046 Klet.  Observers M. Tichy, M. Kocer.  0.57-m f/5.2 reflector + CCD.
118 Modra.  Observers L. Kornos, J. Toth.  0.6-m f/5.5 reflector + CCD.
670 Camarillo.  Observer J. E. Rogers.  0.30-m f/6.7 Helin Telescope + CCD.
704 Lincoln Laboratory ETS, New Mexico.  Observers M. Blythe, F. Shelly,
    M. Bezpalko, M. Elowitz, R. Huber, L. Manguso.  Measurers J. Stuart,
    R. Sayer, J. B. Evans, H. Viggh.  1.0-m f/2.15 reflector + CCD.
919 Desert Beaver Observatory.  Observer B. Yeung.  0.45-m reflector + CCD.

Orbital elements:
2000 UP30
Epoch 2000 Oct. 23.0 TT = JDT 2451840.5                 Spahr
M  15.04855              (2000.0)            P               Q
n   0.28641775     Peri.  117.22017     +0.68800535     +0.72424963
a   2.2793067      Node   196.51525     -0.70980526     +0.65840009
e   0.7648484      Incl.    9.30158     -0.15107990     +0.20487020
P   3.44           H   17.1           G   0.15
From 33 observations 2000 Oct. 30-Nov. 2.

Ephemeris:
2000 UP30                a,e,i = 2.28, 0.76, 9                   q = 0.5360
Date    TT    R. A. (2000) Decl.     Delta      r     Elong.  Phase     V
2000 10 23    07 55.34   +06 44.4    0.452    1.095    90.3    65.3    17.9
2000 11 02    07 21.57   +05 02.5    0.479    1.226   107.8    50.4    17.8
2000 11 12    06 46.24   +03 48.1    0.513    1.353   125.3    36.7    17.8
2000 11 22    06 10.71   +03 09.6    0.565    1.475   142.0    24.3    17.8
2000 12 02    05 38.20   +03 09.2    0.641    1.592   155.6    14.8    18.0
2000 12 12    05 11.71   +03 41.0    0.744    1.704   160.5    11.1    18.3
2000 12 22    04 52.40   +04 34.4    0.873    1.812   154.8    13.4    18.9
2001 01 01    04 39.92   +05 40.2    1.025    1.915   145.0    17.1    19.5
2001 01 11    04 33.26   +06 51.3    1.197    2.015   134.8    20.2    20.0
2001 01 21    04 31.20   +08 03.1    1.384    2.110   125.2    22.4    20.5
2001 01 31    04 32.75   +09 13.1    1.584    2.202   116.1    23.7    20.9
2001 02 10    04 37.08   +10 19.3    1.792    2.291   107.5    24.3    21.3
2001 02 20    04 43.55   +11 20.7    2.006    2.376    99.3    24.2    21.6
2001 03 02    04 51.68   +12 16.6    2.222    2.458    91.6    23.8    21.9

Timothy B. Spahr             (C) Copyright 2000 MPC           M.P.E.C. 2000-V07

Read MPEC 2000-V06 Read MPEC 2000-V08


Our Web policy. Index to the CBAT/MPC/ICQ pages.


Valid HTML 4.01!